Location: Arad
(46.1866°N, 21.3123°E)
Time: 04:53:59
(UTC+03:00)

ISS - Visible Passes

Search period start: 17 April 2024 00:00
Search period end: 27 April 2024 00:00
Orbit: 412 x 419 km, 51.6° (Epoch: 16 April)

Date Brightness Start Highest point End Pass type
(mag) Time Alt. Az. Time Alt. Az. Time Alt. Az.
21 Apr -1.7 05:46:20 10° S 05:48:55 21° SE 05:51:30 10° E visible
22 Apr -1.2 04:58:40 10° SSE 05:00:18 13° SE 05:01:57 10° ESE visible
23 Apr -3.2 05:44:36 11° SW 05:47:44 49° SE 05:50:59 10° ENE visible
24 Apr -2.5 04:57:38 22° S 04:58:57 30° SE 05:01:55 10° ENE visible
25 Apr -1.7 04:10:34 19° SE 04:10:34 19° SE 04:12:38 10° E visible
25 Apr -3.7 05:43:25 11° WSW 05:46:34 76° NNW 05:49:54 10° ENE visible
26 Apr -3.8 04:56:16 33° SW 04:57:37 72° SSE 05:00:57 10° ENE visible
